Weather in Chayka

Russia / Perm Krai     56°54′30″N   56°43′24″E
temp.,
°C
wind,
m/s
gust,
m/s
humid.,
%
clouds,
%
prec.,
mm/h
press.,
hPa
HPBL,
m
17 september, fri
fri1723:00+4wnw61091100 0.9 10031043
02:00+5nw61092100 0.3 10031025
05:00+6nw61190100 0.5 1004771
08:00+6nw61093100 0.2 1005901
11:00+6nw5891100 0.4 1007840
14:00+7nw5784100 0.4 1008828
17:00+6nnw4787100 0.8 1009698
20:00+5nnw3693100 0.4 1010697
18 september, sat
sat1823:00+5nnw3592100 0.6 1011887
02:00+4n3496100 0.3 1011588
05:00+3nw3595100 0.3 1011156
08:00+4nw3692100 0.1 1011406
11:00+3nnw579395 0.2 1012587
14:00+5nw577098 0.3 10131219
17:00+6nw6969100 0.8 10131318
20:00+3wnw5108498 0.3 1014356
19 september, sun
sun1923:00+2wnw5118654 0.3 1014568
02:00+2nw61186100 0.0 1015982
05:00+2wnw61185100 0.0 1015823
08:00+2wnw61191100 0.1 1016920
11:00+4nw71067100 0.3 10171426
14:00+5nw71062100 0.1 10191516
17:00+5nw6961100 0.1 10201421
20:00+4nw6961100 0.0 10221187
20 september, mon
mon2023:00+3nnw4863100 0.0 1023966
02:00+3nw4768100 0.0 1024340
05:00+3wnw3666100 0.0 1026207
08:00+1nnw377930 0.0 1028343
11:00+4nnw3468100 0.0 1029937
14:00+5n3363100 0.0 10301086
17:00+4nne336695 0.0 1030776
20:00+4ne2265100 0.0 103177
21 september, tue
tue2123:00+4e2263100 0.0 103148
02:00+2se1175100 0.0 103210
05:000ese118445 0.0 103210
08:00+1ene117942 0.0 103223
11:00+6e225829 0.0 1031726
14:00+9ene11515 0.0 1030968
17:00+10ne22515 0.0 1030904
20:00+5ne22705 0.0 103011